Freeport, IL

3:25 AM CST on February 25, 2017 (GMT -0600)
Albertus

Weather History for KFEP - December, 2013

Change the Weather History Date:

Sunday, December 29, 2013

  Actual Average Record
Temperature  
Mean Temperature 19 °F -  
Max Temperature 38 °F 30 °F 63 °F (1984)
Min Temperature 0 °F 13 °F -6 °F (1976)
Degree Days  
Heating Degree Days 46    
Moisture  
Dew Point 18 °F    
Average Humidity 82    
Maximum Humidity 93    
Minimum Humidity 72    
Precipitation  
Precipitation 0.00 in - - ()
Sea Level Pressure  
Sea Level Pressure 29.99 in    
Wind  
Wind Speed 13 mph (NW)    
Max Wind Speed 23 mph    
Max Gust Speed 31 mph    
Visibility 9 miles    
Events      
Averages and records for this station are not official NWS values.
T = Trace of Precipitation, MM = Missing Value Source: NWS Daily Summary

Daily Weather History Graph

Daily Weather History Graph

Search for Another Location

Airport or City:

Trip Planner

Search our weather history database for the weather conditions in past years. The results will help you decide how hot, cold, wet, or windy it might be!

Date:

Astronomy

Dec. 29, 2013 Rise Set
Actual Time 7:26 AM CST 4:34 PM CST
Civil Twilight 6:54 AM CST 5:06 PM CST
Nautical Twilight 6:19 AM CST 5:41 PM CST
Astronomical Twilight 5:45 AM CST 6:15 PM CST
Moon 4:08 AM CST (12/29) 2:13 PM CST (12/29)
Length of Visible Light 10h 11m
Length of Day
9h 07m
Waning Crescent, 11% of the Moon is Illuminated
Dec 29
Waning Crescent
Jan 1
New
Jan 7
First Quarter
Jan 15
Full
Jan 23
Last Quarter

Hourly Weather History & Observations

Time (CST) Temp. Windchill Dew Point Humidity Pressure Visibility Wind Dir Wind Speed Gust Speed Precip Events Conditions
12:15 AM 38.7 °F 30.5 °F 31.8 °F 76% 29.77 in 10.0 mi SW 13.8 mph - N/A   Clear
12:35 AM 38.7 °F 30.5 °F 32.0 °F 77% 29.77 in 10.0 mi SW 13.8 mph 18.4 mph N/A   Clear
12:55 AM 36.1 °F 26.9 °F 30.4 °F 80% 29.76 in 10.0 mi SSW 15.0 mph - N/A   Clear
1:15 AM 38.7 °F 30.5 °F 32.0 °F 77% 29.77 in 10.0 mi SSW 13.8 mph - N/A   Clear
1:35 AM 34.7 °F 26.4 °F 30.2 °F 84% 29.78 in 10.0 mi SSW 11.5 mph - N/A   Clear
1:55 AM 34.5 °F 25.3 °F 30.0 °F 84% 29.78 in 10.0 mi SW 13.8 mph - N/A   Clear
2:15 AM 34.9 °F 28.3 °F 30.0 °F 82% 29.78 in 10.0 mi WSW 8.1 mph - N/A   Clear
2:35 AM 33.8 °F 27.7 °F 29.1 °F 83% 29.78 in 10.0 mi WSW 6.9 mph - N/A   Clear
2:55 AM 33.8 °F 29.6 °F 29.3 °F 84% 29.79 in 10.0 mi WSW 4.6 mph - N/A   Clear
3:15 AM 33.8 °F 26.4 °F 29.8 °F 85% 29.79 in 10.0 mi West 9.2 mph - N/A   Scattered Clouds
3:35 AM 33.8 °F 25.8 °F 30.4 °F 87% 29.81 in 10.0 mi WNW 10.4 mph - N/A   Mostly Cloudy
3:55 AM 33.8 °F 25.8 °F 31.1 °F 90% 29.80 in 10.0 mi WNW 10.4 mph - N/A   Overcast
4:15 AM 34.0 °F 26.6 °F 31.6 °F 91% 29.81 in 10.0 mi WNW 9.2 mph - N/A   Overcast
4:35 AM 33.8 °F 27.0 °F 31.6 °F 92% 29.80 in 10.0 mi WNW 8.1 mph - N/A   Overcast
4:55 AM 33.8 °F 28.6 °F 31.5 °F 91% 29.81 in 7.0 mi West 5.8 mph - N/A   Overcast
5:15 AM 33.8 °F 26.4 °F 31.6 °F 92% 29.81 in 7.0 mi West 9.2 mph - N/A   Overcast
5:35 AM 34.2 °F 26.8 °F 32.0 °F 92% 29.81 in 7.0 mi WNW 9.2 mph - N/A   Overcast
5:55 AM 34.7 °F 26.9 °F 32.0 °F 90% 29.82 in 7.0 mi WNW 10.4 mph - N/A   Overcast
6:15 AM 34.7 °F 26.4 °F 32.0 °F 90% 29.83 in 7.0 mi WNW 11.5 mph - N/A   Overcast
6:35 AM 34.9 °F 25.7 °F 32.2 °F 90% 29.84 in 7.0 mi NW 13.8 mph 19.6 mph N/A   Overcast
6:55 AM 34.9 °F 24.9 °F 32.0 °F 89% 29.84 in 7.0 mi NW 16.1 mph 21.9 mph N/A   Overcast
7:15 AM 33.8 °F 22.8 °F 30.6 °F 88% 29.86 in 10.0 mi NNW 18.4 mph 26.5 mph N/A   Overcast
7:35 AM 33.8 °F 21.9 °F 30.7 °F 89% 29.87 in 10.0 mi NNW 21.9 mph 31.1 mph N/A   Overcast
7:55 AM 33.4 °F 23.5 °F 30.7 °F 90% 29.89 in 10.0 mi NNW 15.0 mph 24.2 mph N/A   Overcast
8:15 AM 31.5 °F 18.5 °F 28.4 °F 88% 29.90 in 3.0 mi NNW 23.0 mph 29.9 mph N/A   Overcast
8:35 AM 29.8 °F 16.6 °F 26.6 °F 88% 29.91 in 10.0 mi NNW 21.9 mph 27.6 mph N/A   Overcast
8:55 AM 28.8 °F 15.9 °F 25.7 °F 88% 29.93 in 7.0 mi NNW 19.6 mph 24.2 mph N/A   Overcast
9:15 AM 27.3 °F 13.3 °F 24.4 °F 89% 29.94 in 4.0 mi NNW 21.9 mph 28.8 mph N/A   Overcast
9:17 AM 26.6 °F 13.1 °F 24.8 °F 93% 29.94 in 4.0 mi NNW 19.6 mph 28.8 mph N/A   Overcast
9:35 AM 26.6 °F 13.4 °F 23.9 °F 90% 29.95 in 4.0 mi NNW 18.4 mph - N/A   Overcast
10:15 AM 26.2 °F 13.0 °F 23.4 °F 89% 29.97 in 5.0 mi NNW 18.4 mph 25.3 mph N/A   Overcast
10:35 AM 25.7 °F 12.3 °F 22.8 °F 89% 29.98 in 5.0 mi NNW 18.4 mph 23.0 mph N/A   Overcast
10:55 AM 24.8 °F 9.6 °F 21.0 °F 86% 29.99 in 10.0 mi NNW 23.0 mph 28.8 mph N/A   Overcast
11:15 AM 24.1 °F 10.6 °F 20.3 °F 85% 29.99 in 10.0 mi NNW 17.3 mph - N/A   Overcast
11:35 AM 23.9 °F 12.9 °F 19.8 °F 84% 30.00 in 10.0 mi NNW 11.5 mph - N/A   Overcast
11:55 AM 23.9 °F 11.7 °F 19.6 °F 84% 30.00 in 10.0 mi NNW 13.8 mph 18.4 mph N/A   Overcast
12:15 PM 23.9 °F 10.8 °F 19.9 °F 85% 29.99 in 10.0 mi NNW 16.1 mph 23.0 mph N/A   Overcast
12:35 PM 23.9 °F 11.7 °F 19.4 °F 83% 30.00 in 10.0 mi North 13.8 mph 18.4 mph N/A   Overcast
12:55 PM 23.7 °F 9.7 °F 18.1 °F 79% 30.00 in 10.0 mi NNW 18.4 mph 21.9 mph N/A   Overcast
1:15 PM 23.7 °F 11.0 °F 18.1 °F 79% 30.01 in 10.0 mi NNW 15.0 mph - N/A   Overcast
1:55 PM 23.7 °F 12.6 °F 16.0 °F 72% 30.02 in 10.0 mi North 11.5 mph 21.9 mph N/A   Overcast
2:15 PM 23.7 °F 11.0 °F 17.2 °F 76% 30.02 in 10.0 mi NW 15.0 mph - N/A   Overcast
2:35 PM 23.7 °F 10.5 °F 17.1 °F 76% 30.03 in 10.0 mi NW 16.1 mph - N/A   Overcast
2:55 PM 22.1 °F 8.5 °F 14.7 °F 73% 30.04 in 10.0 mi NW 16.1 mph 23.0 mph N/A   Overcast
3:15 PM 21.2 °F 8.3 °F 14.5 °F 75% 30.06 in 10.0 mi NW 13.8 mph 21.9 mph N/A   Overcast
3:55 PM 21.2 °F 9.5 °F 14.5 °F 75% 30.07 in 10.0 mi NW 11.5 mph - N/A   Overcast
4:15 PM 19.0 °F 3.2 °F 12.4 °F 75% 30.08 in 10.0 mi WNW 19.6 mph 24.2 mph N/A   Overcast
4:35 PM 18.5 °F 4.3 °F 12.4 °F 77% 30.09 in 10.0 mi NW 15.0 mph - N/A   Overcast
4:55 PM 18.1 °F 2.0 °F 11.8 °F 76% 30.10 in 10.0 mi WNW 19.6 mph 25.3 mph N/A   Overcast
5:15 PM 16.3 °F 0.5 °F 9.7 °F 75% 30.11 in 10.0 mi NW 17.3 mph - N/A   Overcast
5:35 PM 16.2 °F 1.3 °F 9.5 °F 75% 30.12 in 10.0 mi NW 15.0 mph 21.9 mph N/A   Overcast
5:55 PM 16.0 °F 1.1 °F 9.1 °F 74% 30.13 in 10.0 mi NW 15.0 mph 23.0 mph N/A   Overcast
6:35 PM 13.6 °F -1.9 °F 7.2 °F 75% 30.15 in 10.0 mi WNW 15.0 mph - N/A   Overcast
6:55 PM 13.6 °F -2.4 °F 7.3 °F 76% 30.16 in 10.0 mi NW 16.1 mph 20.7 mph N/A   Overcast
7:15 PM 13.6 °F -0.7 °F 7.2 °F 75% 30.17 in 10.0 mi NW 12.7 mph 16.1 mph N/A   Overcast
7:35 PM 12.0 °F -4.0 °F 5.5 °F 75% 30.18 in 10.0 mi NW 15.0 mph - N/A   Overcast
7:55 PM 11.1 °F -4.5 °F 4.8 °F 76% 30.18 in 10.0 mi NW 13.8 mph 20.7 mph N/A   Overcast
8:15 PM 10.8 °F -5.6 °F 4.1 °F 75% 30.19 in 10.0 mi NW 15.0 mph - N/A   Overcast
8:35 PM 7.7 °F -8.2 °F 1.4 °F 75% 30.19 in 10.0 mi NW 12.7 mph - N/A   Scattered Clouds
8:55 PM 7.3 °F -8.6 °F 0.5 °F 74% 30.20 in 10.0 mi NW 12.7 mph 19.6 mph N/A   Mostly Cloudy
9:15 PM 6.8 °F -8.6 °F 0.5 °F 75% 30.20 in 10.0 mi NW 11.5 mph - N/A   Overcast
9:35 PM 6.4 °F -9.0 °F -0.0 °F 75% 30.21 in 10.0 mi NW 11.5 mph - N/A   Overcast
9:55 PM 5.7 °F -9.1 °F -0.9 °F 74% 30.21 in 10.0 mi NW 10.4 mph - N/A   Mostly Cloudy
10:15 PM 4.5 °F -8.7 °F -2.2 °F 74% 30.21 in 10.0 mi NW 8.1 mph - N/A   Scattered Clouds
10:35 PM 3.2 °F -11.3 °F -3.6 °F 73% 30.23 in 10.0 mi NW 9.2 mph - N/A   Clear
10:55 PM 3.2 °F -9.1 °F -4.0 °F 72% 30.23 in 10.0 mi NW 6.9 mph - N/A   Clear
11:15 PM 1.2 °F -6.4 °F -4.9 °F 75% 30.23 in 10.0 mi WNW 3.5 mph - N/A   Clear
11:35 PM 0.9 °F -11.9 °F -4.9 °F 77% 30.24 in 10.0 mi WNW 6.9 mph - N/A   Clear
11:55 PM 0.9 °F -6.9 °F -4.7 °F 77% 30.25 in 10.0 mi WNW 3.5 mph - N/A   Clear